Flag for Germany Past Weather in Weiden in der Oberpfalz, Bavaria, Germany — Yesterday and Last 2 Weeks

Now
32 °F

Sunny.


Feels Like: 32 °F
Forecast: 11 / 24 °F
Wind: No wind

Location: Grafenwoehr

Current Time: Dec 4, 2016 at 1:17:12 pm

Latest Report: Dec 4, 2016 at 12:58 pm


Visibility: N/A

Pressure: 30.43 "Hg

Humidity: 80%

Dew Point: 27 °F

Location of Weiden in der OberpfalzLocation

Past Weather in Weiden in der Oberpfalz — Graph

°F

Weiden in der Oberpfalz Temperature Yesterday

Maximum temperature yesterday: 37 °F (at 2:58 pm)
Minimum temperature yesterday: 16 °F (at 10:58 pm)
Average temperature yesterday: 23 °F

High & Low Weather Summary for the Past Weeks

 TemperatureHumidityPressure
High52 °F (Nov 22, 1:58 pm)100% (Nov 19, 11:58 am)30.64 "Hg (Nov 19, 11:58 am)
Low10 °F (Nov 30, 3:58 am)51% (Nov 29, 2:58 pm)29.76 "Hg (Nov 21, 1:58 pm)
Average35 °F87%30.15 "Hg
* Reported Nov 19 11:01 am — Dec 4 11:58 am, Weiden in der Oberpfalz, Weather by CustomWeather, © 2016

Note: Actual official high and low records may vary slightly from our data, if they occured in-between our weather recording intervals... More about our weather records

Advertising

Weiden in der Oberpfalz Weather History for the Previous 24 Hours

Scroll right to see more
 ConditionsComfort  
Time TempWeatherWind HumidityBarometerVisibility
11:58 am
Sun, Dec 4
30 °FSunny.No wind80%30.45 "HgN/A
10:58 am25 °FSunny.No wind86%30.46 "HgN/A
9:58 am19 °FSunny.No wind86%30.47 "HgN/A
8:58 am12 °FSunny.No wind85%30.47 "HgN/A
7:58 am10 °FSunny.No wind85%30.45 "HgN/A
6:58 am10 °FClear.No wind85%30.44 "HgN/A
5:58 am10 °FClear.No wind85%30.42 "HgN/A
4:58 am12 °FClear.No wind85%30.41 "HgN/A
3:58 am12 °FClear.No wind85%30.41 "HgN/A
2:58 am12 °FClear.No wind92%30.39 "HgN/A
1:58 am14 °FClear.No wind85%30.39 "HgN/A
12:58 am16 °FClear.No wind86%30.39 "HgN/A
11:58 pm
Sat, Dec 3
16 °FClear.No wind93%30.39 "HgN/A
10:58 pm16 °FClear.No wind93%30.39 "HgN/A
9:58 pm19 °FClear.No wind93%30.40 "HgN/A
8:58 pm19 °FClear.No wind93%30.40 "HgN/A
7:58 pm23 °FClear.No wind93%30.38 "HgN/A
6:58 pm25 °FClear.No wind93%30.37 "HgN/A
5:58 pm27 °FClear.No wind93%30.36 "HgN/A
4:58 pm28 °FClear.No wind93%30.34 "HgN/A
3:58 pm32 °FSunny.No wind87%30.32 "HgN/A
2:58 pm37 °FSunny.No wind70%30.31 "HgN/A
1:58 pm36 °FSunny.No wind75%30.32 "HgN/A
Weather by CustomWeather, © 2016

See weather overviewHow to use our weather pages